CAPE
500 470 833 292 146 577 497 562 310 289 20 128 222 1113 792 482 236 439 213 1907 2052 2140 2066 1387 1495 1551 1323 1590 1534 1427 1360 1497 1896 1625 1466 1499 1695 1650 1699 1644 1526 1536 1837
94 0 17 0 377 378 113 279 315 5 0 65 125 503 631 566 353 545 252 1055 2114 2182 2248 2059 2066 1778 1334 1725 1637 1491 1740 1873 2004 1850 1853 1784 1774 1677 1297 1264 1334 1277 1519
362 384 388 134 525 566 359 401 191 64 215 156 233 328 408 666 842 579 409 428 883 1745 1872 2107 2242 2339 2451 2017 1675 2007 2114 2097 1993 1934 1952 1866 1867 1626 1541 1453 1177 1334 1460
9 209 302 920 1022 766 887 557 101 510 618 422 359 431 334 532 823 635 819 628 783 972 2033 2311 2325 2423 2379 2023 2216 2258 2107 2033 2043 2059 2048 2041 1798 1432 1380 1495 1378 1567 1482
97 393 1229 1225 1009 638 1217 847 123 734 739 423 285 150 314 648 535 823 1423 1058 1002 829 1074 1993 2312 2480 2228 1676 2533 2559 2366 2252 2227 2214 2193 2159 2102 1983 1749 1718 1617 1568 1616
280 427 1155 920 998 640 891 838 843 1178 975 817 358 247 698 726 432 392 167 496 881 1172 817 726 1657 1834 2413 2310 2379 2390 2472 2734 2637 2447 2309 2147 1949 1821 1717 1630 1572 1502 1585
315 420 1375 949 629 1080 248 1576 1341 1096 1052 585 484 328 183 229 101 0 500 756 1000 1049 1045 804 1010 1501 1501 2426 2312 2596 2677 2737 2742 2738 2370 2089 1954 1862 1697 1564 1554 1628 1592
1102 664 1344 679 932 1016 828 615 1195 1219 1331 911 512 322 3 22 109 249 553 787 747 825 1264 1258 1062 988 766 1075 1599 2381 2355 2592 2562 2712 2559 2306 2133 1846 1713 1368 1390 1444 1476
663 601 1475 1283 908 1280 517 412 1259 1609 983 809 523 674 280 142 295 141 284 573 735 756 483 913 1610 1502 1273 1007 1307 2000 2406 2028 2631 2930 2750 2584 2037 1884 1745 1436 1319 1350 1239
475 628 805 967 1880 1144 905 1542 965 730 1197 813 1083 878 741 502 351 458 255 186 869 672 665 479 1314 638 1461 1450 1182 1500 1986 1570 2005 2615 2724 2695 2256 1927 1757 1590 1423 1233 1238
1054 922 747 970 1389 1362 909 960 710 615 384 1242 1028 1061 728 646 1278 762 234 226 137 171 586 813 1584 682 1789 1830 1310 1120 1424 1352 1522 2159 2475 2602 2486 1725 1226 1252 1518 1494 1501
1159 1130 860 1190 1363 1929 1618 1219 563 272 31 1242 1194 1530 1437 989 947 373 58 50 64 310 630 545 1427 1188 1593 1658 1592 1348 1589 1222 1100 1342 1844 2191 2397 2380 1675 1289 1254 1218 1249
919 894 1003 856 1148 1162 1345 1286 757 748 961 898 1065 1128 1016 1237 1167 790 607 119 134 680 552 681 1021 1340 1636 1574 1420 1410 1376 897 753 849 1096 1340 1877 2228 2258 2093 1987 1591 1419
997 990 968 993 1138 886 937 1191 987 1078 1170 978 1134 926 921 1328 1120 1124 844 649 112 461 651 584 110 1201 1116 1159 1206 1429 1027 767 631 609 519 671 804 1183 1796 1976 1931 1876 1859
1039 1322 1066 1018 903 967 1016 1351 1120 1137 1216 859 1318 1251 1465 1328 1031 1437 1352 1146 641 293 353 425 641 821 546 387 434 1055 932 1063 936 840 939 835 424 534 778 1080 1324 1482 1492
983 1104 936 920 557 981 1045 994 1170 1235 876 573 1164 718 1256 1423 1255 1108 1421 1456 1122 652 404 838 1001 1081 829 522 295 50 850 1013 1185 820 804 902 969 691 585 699 753 879 1097
1264 1286 903 726 844 1084 1167 1362 1154 928 1145 1278 1215 1070 1384 1132 826 909 1378 1488 1317 848 577 666 1062 1290 909 938 1008 934 1087 1043 1186 1185 1233 929 1086 961 525 309 487 658 628
1297 1446 1611 1185 1048 1113 1422 1448 1497 1264 1221 1098 628 695 1105 1374 1582 1602 1177 1342 1547 1350 1405 1244 1291 1186 1022 932 1413 1656 1647 1872 1298 1492 1659 1249 989 999 912 554 330 286 557
1499 1687 1393 1656 1415 1472 1700 1686 1674 1588 983 997 1477 1023 1352 1264 1069 1219 1714 1601 1071 1187 1345 1045 981 1066 1061 1188 1180 1362 1028 1352 1319 1360 1159 1170 918 774 1040 698 573 367 301
1740 1571 1876 1361 1261 1592 1606 1708 1725 1338 1177 1021 1476 1573 1494 1491 1482 1233 1479 1303 982 1106 991 1298 1124 1179 1165 806 786 901 775 601 326 166 689 871 707 649 703 861 542 444 401
1987 1605 1384 1909 1744 1823 1807 1569 1737 1930 1773 1824 1993 1724 1762 1777 1642 1526 1493 1331 1265 1176 1327 1204 1297 1157 942 849 1005 1004 913 840 772 733 648 740 654 665 371 245 214 514 432
2354 2071 1552 1002 1791 1797 1606 1699 1576 1508 1640 1745 1706 1885 1829 1808 1746 1618 1521 1746 1710 1567 1625 1600 1541 1399 1183 1269 843 845 608 462 380 481 624 409 270 265 126 39 109 419 375
2797 2513 2251 1937 1491 1649 1809 1812 1642 1445 1570 1511 1450 1607 1954 2062 1548 1063 1691 1821 1585 1380 1217 1125 945 1020 905 372 254 96 19 0 0 0 34 25 127 218 476 552 622 698 650
2851 2661 2497 2427 2341 2222 2085 1939 1643 1313 1272 1552 1463 1279 1612 1809 1429 1852 1797 1590 1540 1808 1700 1242 997 830 604 249 71 0 0 0 0 0 0 0 9 22 47 211 404 469 649
3033 3074 2858 2752 2589 2443 2554 2453 2104 1896 1538 1423 1608 1666 1398 1323 1349 1415 1526 1574 1593 1567 1522 1336 1028 492 319 113 9 23 5 0 0 0 0 0 4 0 53 82 235 451 617
3153 3045 2990 2994 2863 2808 2721 2597 2454 2340 2171 1708 1495 1514 1518 1552 1555 1619 1541 1397 1530 1214 899 578 440 203 104 49 17 1 0 0 0 0 0 0 4 2 7 1 0 0 28
CIN
-14 -16 -27 -57 -28 -60 -97 -100 -39 -140 -120 -90 -67 -16 -77 -80 -27 -90 -79 -30 -22 -17 -11 -30 -14 -6 -12 -0 -0 -0 -0 -0 -0 -0 -0 -0 -0 -1 -1 -0 -0 -0 -0
-86 -0 -38 -0 -94 -20 -160 -157 -62 -32 -50 -42 -45 -35 -53 -53 -37 -195 -205 -112 -38 -34 -25 -16 -4 -4 -13 -0 -0 -2 -0 -0 -0 -0 -0 -0 -0 -0 -0 -0 -0 -0 -0
-42 -40 -74 -31 -93 -139 -73 -27 -87 -43 -36 -74 -278 -72 -61 -26 -69 -41 -36 -236 -144 -60 -50 -26 -5 -0 -0 -0 -0 -0 -0 -0 -0 -0 -0 -0 -0 -0 -0 -0 -0 -0 -0
-32 -51 -93 -47 -19 -136 -64 -30 -205 -19 -61 -62 -218 -204 -37 -17 -9 -49 -103 -62 -182 -148 -69 -34 -15 -3 -1 -0 -0 -0 -0 -0 -0 -0 -0 -0 -0 -0 -0 -0 -0 -0 -0
-29 -82 -44 -20 -30 -61 -24 -21 -15 -78 -59 -87 -163 -35 -110 -116 -147 -126 -94 -83 -81 -157 -160 -69 -30 -14 -12 -27 -0 -0 -0 -0 -0 -0 -0 -0 -0 -0 -0 -0 -0 -0 -0
-18 -85 -16 -7 -90 -12 -33 -22 -28 -98 -29 -20 -74 -20 -90 -103 -135 -58 -221 -135 -37 -53 -113 -157 -100 -72 -25 -11 -1 -1 -0 -0 -0 -0 -0 -0 -0 -0 -0 -0 -0 -0 -0
-78 -63 -21 -15 -23 -24 -48 -38 -34 -55 -28 -56 -21 -35 -42 -58 -27 -0 -227 -192 -237 -185 -73 -28 -174 -128 -110 -34 -15 -1 -0 -0 -0 -0 -0 -0 -0 -0 -0 -0 -0 -0 -0
-40 -58 -19 -1 -50 -9 -9 -15 -51 -47 -44 -37 -45 -14 -4 -13 -229 -213 -13 -97 -148 -53 -59 -47 -22 -34 -104 -135 -91 -24 -7 -0 -1 -0 -0 -0 -0 -0 -0 -1 -1 -0 -0
-46 -49 -22 -41 -39 -14 -16 -37 -49 -18 -43 -51 -44 -19 -38 -32 -26 -14 -24 -44 -91 -95 -21 -37 -37 -72 -31 -41 -132 -73 -27 -29 -2 -0 -0 -0 -1 -0 -0 -1 -1 -0 -0
-49 -56 -49 -43 -19 -37 -43 -35 -75 -104 -65 -41 -36 -37 -23 -31 -10 -55 -208 -57 -69 -32 -11 -25 -69 -82 -32 -28 -82 -145 -93 -83 -38 -1 -0 -0 -0 -0 -0 -0 -1 -1 -1
-48 -39 -42 -35 -38 -27 -44 -24 -19 -10 -30 -46 -63 -61 -83 -40 -47 -19 -21 -17 -48 -64 -73 -33 -50 -24 -43 -40 -26 -11 -150 -141 -97 -29 -2 -1 -0 -4 -15 -9 -0 -0 -0
-40 -29 -40 -53 -31 -21 -27 -18 -26 -30 -23 -54 -45 -43 -40 -37 -31 -25 -28 -21 -42 -20 -24 -28 -34 -112 -51 -43 -47 -160 -161 -169 -158 -110 -48 -14 -1 -0 -5 -16 -13 -9 -2
-26 -51 -37 -48 -28 -49 -43 -16 -35 -45 -38 -45 -50 -51 -71 -74 -52 -36 -20 -24 -33 -20 -86 -132 -42 -27 -55 -29 -79 -198 -206 -215 -206 -171 -125 -85 -30 -3 -1 -0 -0 -2 -1
-44 -39 -35 -45 -34 -51 -52 -35 -32 -20 -19 -25 -45 -37 -72 -53 -54 -58 -31 -20 -16 -49 -56 -17 -27 -56 -50 -29 -50 -151 -158 -200 -211 -43 -204 -152 -128 -81 -25 -6 -3 -3 -1
-65 -12 -35 -48 -29 -20 -48 -33 -21 -24 -7 -36 -20 -33 -39 -35 -36 -49 -31 -28 -1 -9 -10 -40 -21 -70 -62 -26 -21 -30 -26 -41 -8 -17 -26 -20 -38 -171 -137 -97 -58 -29 -14
-52 -16 -22 -17 -39 -41 -38 -26 -24 -29 -19 -38 -22 -18 -31 -35 -27 -91 -50 -34 -32 -19 -15 -51 -17 -53 -25 -25 -18 -12 -26 -23 -19 -18 -24 -30 -26 -30 -137 -133 -126 -101 -66
-69 -34 -68 -101 -78 -44 -32 -18 -16 -16 -23 -18 -32 -25 -27 -36 -63 -92 -80 -52 -41 -31 -40 -62 -43 -50 -40 -40 -38 -29 -16 -67 -21 -18 -13 -22 -13 -28 -52 -97 -157 -118 -121
-61 -19 -38 -52 -58 -50 -23 -26 -28 -21 -12 -17 -33 -55 -59 -50 -44 -36 -67 -51 -50 -55 -29 -24 -57 -51 -62 -72 -45 -30 -62 -53 -5 -44 -15 -20 -30 -35 -49 -25 -68 -70 -137
-44 -41 -35 -27 -48 -40 -25 -11 -28 -15 -30 -56 -18 -57 -45 -28 -51 -74 -22 -25 -33 -66 -44 -53 -57 -55 -51 -30 -25 -32 -24 -25 -107 -29 -26 -37 -48 -19 -35 -17 -17 -43 -62
-40 -57 -28 -41 -45 -40 -22 -15 -21 -29 -38 -56 -34 -20 -28 -38 -33 -29 -32 -11 -56 -41 -54 -44 -29 -42 -29 -58 -59 -37 -32 -25 -49 -31 -119 -66 -45 -61 -90 -48 -44 -42 -56
-34 -36 -88 -33 -35 -26 -26 -37 -27 -16 -19 -23 -7 -8 -25 -21 -40 -28 -16 -11 -53 -45 -44 -18 -31 -28 -36 -34 -23 -20 -24 -28 -54 -70 -59 -57 -60 -31 -36 -47 -54 -61 -62
-40 -28 -50 -129 -42 -28 -35 -17 -18 -24 -26 -15 -16 -17 -17 -34 -13 -18 -17 -13 -13 -20 -13 -13 -16 -11 -29 -20 -26 -12 -11 -3 -29 -51 -2 -13 -20 -54 -24 -272 -140 -31 -55
-25 -32 -58 -39 -58 -55 -16 -7 -7 -12 -14 -12 -23 -27 -22 -8 -9 -44 -43 -7 -11 -18 -16 -14 -37 -47 -31 -67 -32 -62 -84 -0 -0 -0 -46 -26 -45 -33 -35 -36 -36 -27 -25
-26 -12 -17 -16 -10 -8 -7 -4 -2 -7 -12 -26 -20 -45 -38 -16 -39 -24 -5 -23 -26 -20 -17 -30 -13 -7 -6 -26 -34 -0 -0 -0 -0 -0 -0 -0 -26 -3 -77 -66 -22 -27 -24
-25 -15 -17 -11 -14 -16 -6 -3 -5 -4 -5 -4 -21 -8 -26 -49 -62 -58 -32 -25 -38 -35 -24 -19 -17 -44 -44 -65 -0 -0 -0 -0 -0 -0 -0 -0 -103 -0 -37 -78 -23 -3 -1
-22 -17 -16 -15 -13 -10 -8 -4 -1 -1 -0 -2 -12 -31 -26 -21 -35 -25 -22 -37 -22 -42 -33 -48 -41 -86 -102 -79 -0 -0 -0 -0 -0 -0 -0 -0 -3 -9 -2 -0 -0 -0 -42
Wind_Speed
4 10 12 12 11 9 7 3 8 18 nan 19 17 8 38 23 26 22 19 32 30 30 27 27 25 25 23 23 22 22 21 22 21 21 21 19 17 15 15 13 12 11 10
nan nan nan nan 1 3 2 6 23 nan nan nan 17 15 24 24 24 19 22 25 32 30 27 26 27 27 26 24 22 22 21 21 20 20 20 19 19 17 16 15 14 13 12
7 6 9 13 4 8 8 8 20 nan 26 23 18 10 23 16 16 17 15 20 23 29 29 29 28 27 27 27 25 24 23 21 20 20 20 19 18 17 17 16 16 14 13
nan 5 8 9 8 1 7 15 17 18 17 10 22 9 12 9 12 6 15 18 19 19 24 27 30 30 28 28 25 23 22 22 21 20 19 19 20 19 18 18 17 14 12
nan 4 4 7 8 3 5 5 13 10 11 14 23 10 2 11 5 8 22 16 17 17 17 24 27 28 30 30 28 26 24 22 20 20 20 19 18 17 17 16 15 14 13
6 7 10 10 5 3 2 6 8 8 6 11 12 8 7 15 10 12 16 17 16 14 13 17 17 18 25 27 26 25 25 25 23 22 20 18 17 16 17 14 16 15 14
7 9 9 10 2 2 3 2 3 3 3 3 10 9 5 9 14 nan 8 10 9 16 19 17 12 9 14 22 20 20 21 22 22 22 22 21 19 16 14 14 13 13 11
9 12 10 8 11 12 10 6 5 3 1 2 7 8 nan nan 9 7 7 12 11 8 10 13 11 10 9 10 13 18 18 18 17 18 18 18 18 18 16 14 12 11 10
10 12 13 14 16 15 8 7 5 4 2 2 2 8 6 6 2 7 6 6 8 9 5 10 10 11 7 7 12 15 16 16 17 18 17 17 17 15 15 14 14 13 12
10 9 15 18 17 14 12 8 11 8 9 6 4 4 6 7 7 1 2 8 12 12 7 6 7 3 9 11 14 15 17 17 17 17 17 17 16 16 16 15 14 12 12
9 9 12 17 18 15 12 12 12 8 10 9 9 6 4 4 6 7 3 2 4 7 4 9 9 5 8 10 10 10 14 14 14 15 14 15 16 17 16 15 14 14 13
12 12 9 16 20 15 13 12 13 8 nan 9 10 12 8 8 5 4 nan nan nan 8 9 7 7 9 12 12 15 16 19 17 15 13 13 14 15 16 16 15 15 16 16
13 12 16 19 22 16 14 15 16 11 11 13 10 9 11 11 10 8 10 10 12 10 9 14 10 11 12 9 12 21 22 21 16 14 13 13 13 14 15 14 15 16 17
16 11 14 19 22 20 16 13 16 14 11 12 9 8 11 10 11 11 11 12 13 13 12 12 11 13 14 10 12 13 13 17 18 15 13 12 12 11 13 14 15 15 16
10 10 13 17 16 19 15 16 17 15 13 14 11 12 13 11 13 12 11 12 19 17 13 14 13 13 18 9 13 15 14 12 13 19 18 16 14 16 15 16 15 15 14
8 11 7 12 13 15 15 14 17 18 13 14 13 14 14 14 15 15 15 16 16 20 17 15 13 13 14 15 13 nan 13 12 17 18 18 16 14 15 14 14 15 16 15
10 11 6 3 1 13 18 12 12 13 13 12 14 16 16 16 15 15 15 16 15 18 20 14 14 13 15 11 10 11 14 16 20 22 20 18 15 17 18 16 15 15 17
10 10 11 8 8 10 10 11 14 14 15 15 14 16 16 16 15 14 15 13 16 17 19 18 17 17 15 14 13 13 14 19 21 21 24 21 22 20 21 20 18 16 16
10 9 12 14 14 14 14 14 18 16 15 18 16 18 16 16 15 17 16 16 15 17 17 21 18 19 20 19 19 21 22 24 23 22 30 25 27 23 26 18 17 15 16
10 9 12 12 14 15 16 19 20 19 18 17 16 16 16 14 14 15 17 17 17 16 17 18 20 19 20 20 24 23 24 29 27 28 32 33 34 35 37 17 17 12 13
14 13 12 11 12 13 15 17 17 18 16 14 13 13 15 14 14 15 18 17 17 18 20 17 18 21 25 25 27 28 28 27 27 31 32 34 32 34 36 19 18 12 17
14 15 15 14 12 11 12 15 16 14 15 15 15 13 14 13 14 10 13 16 18 16 19 21 19 22 23 26 30 31 30 30 29 37 36 30 31 32 28 nan 16 12 21
15 15 15 16 14 13 13 13 14 15 14 17 19 18 16 15 13 14 13 21 19 14 16 20 19 24 25 31 32 nan nan nan nan nan nan nan 36 32 28 32 25 20 23
15 15 16 16 16 15 15 14 15 18 17 17 18 19 19 18 16 20 21 22 22 22 23 24 26 24 29 34 nan nan nan nan nan nan nan nan nan nan nan 27 37 35 35
23 22 20 19 18 17 18 15 17 22 21 20 20 20 20 21 21 26 25 23 22 24 22 24 24 26 30 37 nan nan nan nan nan nan nan nan nan nan nan nan 27 35 37
29 27 24 24 23 22 22 24 26 25 24 25 23 23 21 23 27 29 29 30 27 26 26 29 28 29 29 nan nan nan nan nan nan nan nan nan nan nan nan nan nan nan nan
Wind_Direction
65 63 53 75 60 58 17 241 134 77 nan 76 55 262 81 80 71 62 54 43 44 41 39 40 45 47 49 48 48 48 47 47 49 52 53 55 57 60 62 56 55 55 65
nan nan nan nan 56 43 173 22 334 nan nan nan 93 36 65 79 81 69 63 58 49 47 42 42 44 48 52 54 51 52 55 55 53 53 52 52 54 54 55 56 58 66 78
175 96 88 101 65 41 355 9 31 nan 77 87 98 43 80 82 75 62 85 72 58 51 49 50 52 49 50 51 50 52 55 58 56 56 55 56 54 52 55 55 60 66 73
nan 152 119 113 75 93 39 21 40 59 60 95 90 89 81 106 113 139 99 88 77 66 57 52 53 52 51 53 51 47 51 55 59 60 62 61 63 63 63 60 59 58 60
nan 174 187 140 123 40 18 56 48 47 47 52 73 81 138 112 113 174 108 95 88 75 69 60 54 53 50 50 54 56 54 55 58 61 65 64 63 61 66 70 78 70 64
208 201 233 193 210 127 312 54 61 71 42 50 74 77 352 19 20 37 64 81 76 74 66 69 55 56 48 50 50 54 51 53 55 58 61 63 64 62 67 58 65 64 61
220 231 236 303 183 102 195 182 109 162 122 22 30 41 106 50 11 nan 82 90 96 92 53 77 62 61 59 43 48 50 49 47 47 49 50 51 53 58 59 54 50 51 49
234 241 234 221 227 230 211 204 227 198 347 36 16 28 nan nan 55 72 78 74 82 58 66 53 58 42 63 56 31 39 41 42 42 41 41 40 39 38 41 46 45 45 44
250 243 237 232 228 236 216 207 212 255 302 354 159 342 353 37 50 33 39 28 48 52 54 54 42 25 9 37 31 29 29 24 27 30 33 30 24 22 22 24 30 35 37
252 239 244 245 235 247 228 223 224 236 252 239 228 224 321 329 331 228 36 17 8 26 16 21 61 15 349 15 24 23 16 11 14 18 24 19 19 19 17 13 14 18 20
275 280 253 245 243 238 245 254 248 249 261 277 279 267 230 286 283 293 297 140 267 354 1 342 345 4 5 340 344 11 3 2 5 8 12 14 13 16 18 17 11 9 9
264 265 255 236 241 243 238 255 258 269 nan 278 272 286 284 254 231 246 nan nan nan 207 237 278 326 338 335 322 339 343 343 343 349 356 355 359 3 8 12 11 9 5 1
296 261 245 240 238 239 235 249 260 250 254 260 268 273 279 282 299 309 307 312 297 299 288 293 280 293 287 309 321 322 331 333 338 341 346 346 347 349 353 350 346 344 348
301 278 261 245 243 233 220 236 246 255 268 268 266 258 261 271 287 292 301 305 294 286 297 300 304 297 278 298 289 293 299 323 327 327 331 333 334 337 337 332 332 330 331
289 307 309 244 225 223 226 224 238 244 254 262 265 276 281 287 281 281 290 303 301 293 294 294 297 305 288 271 315 304 296 318 335 324 329 334 342 338 337 334 336 337 329
316 310 342 251 207 207 240 240 240 237 244 243 255 273 286 284 281 278 280 280 281 288 291 301 306 298 298 312 314 nan 303 308 340 330 329 326 323 327 328 331 338 338 335
284 295 316 64 184 234 244 261 277 264 241 250 263 271 277 277 279 282 282 283 278 284 291 284 280 300 306 298 287 294 298 299 307 327 323 317 307 314 315 317 324 329 329
285 286 277 284 258 257 255 265 265 256 257 256 265 262 266 271 276 284 290 282 285 287 291 296 303 302 303 316 313 313 318 309 304 316 318 311 314 310 307 312 315 324 328
297 293 281 274 277 270 264 259 258 255 249 257 258 267 271 270 268 277 291 288 287 289 298 303 311 308 311 314 313 303 308 309 308 297 323 315 311 295 296 262 294 313 327
318 303 288 283 273 268 264 267 265 263 264 263 265 270 267 267 276 285 291 298 297 303 309 308 307 310 312 317 312 311 305 306 307 301 297 304 299 298 302 271 267 278 310
319 319 310 294 284 277 274 277 273 277 278 274 273 268 271 281 299 295 288 296 304 304 303 306 305 299 301 309 309 305 306 301 297 299 303 306 296 292 295 265 257 302 303
317 309 310 321 301 293 303 312 303 295 295 293 286 283 282 289 285 297 314 318 296 304 302 300 300 305 308 302 301 302 304 300 296 293 294 297 299 292 285 nan 249 285 302
299 309 307 307 314 305 304 310 311 284 294 296 296 292 292 292 292 281 287 292 292 292 292 289 293 297 297 298 294 nan nan nan nan nan nan nan 296 293 276 259 255 297 278
304 300 290 286 284 286 302 302 292 277 278 288 299 299 296 292 287 283 278 280 288 297 295 293 296 299 301 304 nan nan nan nan nan nan nan nan nan nan nan 256 242 260 276
286 288 301 304 301 291 299 298 285 279 277 276 274 274 276 280 282 285 279 282 279 278 281 302 301 285 293 302 nan nan nan nan nan nan nan nan nan nan nan nan 253 253 259
283 286 293 298 302 290 293 289 285 270 275 274 271 269 271 272 280 285 283 288 292 289 286 278 275 281 292 nan nan nan nan nan nan nan nan nan nan nan nan nan nan nan nan